GW2275 Weather Reports


time (UTC)temp
F
wind
direction
speed
knots
gust
knots
rain 1hr
in
rain 24hr
in
rain mn
in
humidity
%
barometer
mb
20260505124538 71 75 0.0 1.7 0.00 0.00 0.00 75 1017.4
20260505123053 67 236 0.0 0.9 0.00 0.00 0.00 86 1017.3
20260505121554 65 220 0.0 0.0 0.00 0.00 0.00 93 1017.1
20260505120003 63 180 0.0 0.0 0.00 0.00 0.00 94 1017.1
20260505114509 62 180 0.0 0.0 0.00 0.00 0.00 94 1016.9
20260505113015 61 180 0.0 0.0 0.00 0.00 0.00 94 1016.9
20260505111529 60 180 0.0 0.0 0.00 0.00 0.00 93 1016.8
20260505101554 61 180 0.0 0.0 0.00 0.00 0.00 91 1016.3
20260505100101 61 180 0.0 0.0 0.00 0.00 0.00 91 1016.2
20260505094506 61 180 0.0 0.0 0.00 0.00 0.00 91 1016.1
20260505093012 61 180 0.0 0.0 0.00 0.00 0.00 91 1016.1
20260505091519 61 162 0.0 0.0 0.00 0.00 0.00 90 1016.0
20260505090018 61 162 0.0 0.0 0.00 0.00 0.00 90 1016.0
20260505084533 62 162 0.0 0.0 0.00 0.00 0.00 89 1016.2
20260505083039 62 162 0.0 0.0 0.00 0.00 0.00 87 1016.0
20260505081527 63 162 0.0 0.0 0.00 0.00 0.00 87 1015.9
20260505080043 63 162 0.0 0.0 0.00 0.00 0.00 85 1015.9
20260505074534 65 162 0.0 0.0 0.00 0.00 0.00 83 1015.9
20260505073049 65 162 0.0 0.0 0.00 0.00 0.00 78 1016.1
20260505071548 66 162 0.0 0.9 0.00 0.00 0.00 77 1016.0
20260505070053 66 280 0.0 0.0 0.00 0.00 0.00 76 1015.9
20260505064529 67 35 0.0 0.9 0.00 0.00 0.00 76 1016.0
20260505063040 67 103 0.0 0.0 0.00 0.00 0.00 74 1016.2
20260505061535 68 103 0.0 0.0 0.00 0.00 0.00 72 1016.2
20260505060055 69 104 0.0 1.7 0.00 0.00 0.00 70 1016.3
20260505054543 70 81 0.0 1.7 0.00 0.00 0.00 68 1016.5
20260505053047 69 76 0.0 0.9 0.00 0.00 0.00 70 1016.7
20260505051556 69 84 0.0 0.9 0.00 0.00 0.00 70 1017.0
20260505041515 70 66 0.0 1.7 0.00 0.00 0.00 69 1017.1
20260505040023 70 149 0.9 1.7 0.00 0.00 0.00 69 1017.2
20260505034524 70 76 0.0 1.7 0.00 0.00 0.00 67 1017.3
20260505033030 70 83 0.9 2.6 0.00 0.00 0.00 66 1017.4
20260505031536 71 93 0.9 2.6 0.00 0.00 0.00 67 1017.5
20260505030022 71 74 0.9 3.5 0.00 0.00 0.00 67 1017.6
20260505024527 71 78 0.9 2.6 0.00 0.00 0.00 66 1017.6
20260505023037 71 67 0.9 3.5 0.00 0.00 0.00 67 1017.7
20260505021544 71 78 1.7 3.5 0.00 0.00 0.00 67 1017.6
20260505020042 71 72 0.9 2.6 0.00 0.00 0.00 67 1017.7
20260505014603 71 66 0.9 2.6 0.00 0.00 0.00 67 1017.5
20260505013054 71 68 1.7 3.5 0.00 0.00 0.00 66 1017.6
20260505011559 71 58 0.9 4.3 0.00 0.00 0.00 66 1017.3
20260505010006 71 89 0.9 2.6 0.00 0.00 0.00 67 1017.3
20260505004511 71 97 0.9 2.6 0.00 0.00 0.00 66 1017.3
20260505003002 71 65 0.9 2.6 0.00 0.00 0.00 65 1017.1
20260505001508 71 87 0.9 3.5 0.00 0.00 0.00 65 1016.9
20260505000018 71 94 0.9 2.6 0.00 0.00 0.00 64 1016.8
20260504234527 71 80 1.7 2.6 0.00 0.00 0.00 63 1016.5
20260504233034 72 77 0.9 2.6 0.00 0.00 0.00 63 1016.4
20260504231530 73 72 0.9 4.3 0.00 0.00 0.00 62 1016.4
20260504230036 73 90 0.9 3.5 0.00 0.00 0.00 60 1016.3
20260504224540 74 79 1.7 3.5 0.00 0.00 0.00 59 1016.6
20260504223059 74 67 0.9 3.5 0.00 0.00 0.00 58 1016.7
20260504221554 75 56 0.9 4.3 0.00 0.00 0.00 59 1016.7
20260504220006 75 95 1.7 3.5 0.00 0.00 0.00 57 1016.7
20260504214514 76 95 1.7 4.3 0.00 0.00 0.00 57 1016.8
20260504213025 76 91 1.7 4.3 0.00 0.00 0.00 56 1016.8
20260504211529 76 48 1.7 4.3 0.00 0.00 0.00 55 1016.9
20260504210026 77 63 2.6 4.3 0.00 0.00 0.00 56 1017.0
20260504204534 77 74 1.7 4.3 0.00 0.00 0.00 57 1017.0
20260504203043 77 120 1.7 5.2 0.00 0.00 0.00 55 1017.0
20260504201530 77 44 1.7 5.2 0.00 0.00 0.00 58 1017.1
20260504200036 78 81 1.7 5.2 0.00 0.00 0.00 58 1017.1
20260504194548 77 50 3.5 7.0 0.00 0.00 0.00 56 1017.3
20260504193105 77 65 2.6 5.2 0.00 0.00 0.00 58 1017.4
20260504191504 77 80 2.6 5.2 0.00 0.00 0.00 57 1017.5
20260504190012 78 230 1.7 5.2 0.00 0.00 0.00 57 1017.7
20260504184533 78 64 2.6 6.1 0.00 0.00 0.00 54 1018.1
20260504183030 77 78 2.6 4.3 0.00 0.00 0.00 56 1018.3
20260504181536 77 63 2.6 5.2 0.00 0.00 0.00 57 1018.3
20260504180044 78 85 1.7 5.2 0.00 0.00 0.00 56 1018.4
20260504174546 77 70 1.7 4.3 0.00 0.00 0.00 57 1018.5
20260504173051 77 40 3.5 6.1 0.00 0.00 0.00 55 1018.7
20260504171537 77 101 1.7 4.3 0.00 0.00 0.00 56 1018.7